Regional Weather Roundup
Issued by NWS

Home | Current Version | Previous Version | Text Only | Print | Product List | Glossary On
Versions: 1 2 3 4 5 6 7 8 9 10 11 12 13 14 15 16 17 18 19 20 21 22 23 24 25 26 27 28 29 30 31 32 33 34 35 36 37 38 39 40 41 42 43 44 45 46 47 48 49 50
000
ASUS44 KFWD 151015
RWRTX
NORTH TEXAS HOURLY WEATHER ROUNDUP
NATIONAL WEATHER SERVICE FORT WORTH TX
500 AM CDT MON SEP 15 2014

NOTE: "FAIR" INDICATES FEW OR NO CLOUDS BELOW 12,000 FEET WITH NO
SIGNIFICANT WEATHER AND/OR OBSTRUCTIONS TO VISIBILITY.

TXZ118-119-151100-
DALLAS/FORT WORTH METROPLEX

CITY           SKY/WX    TMP DP  RH WIND       PRES   REMARKS
DFW AIRPORT    CLOUDY    71  65  81 NE3       30.13R
DALLAS LOVE    CLOUDY    72  65  78 SE6       30.13R
FTW MEACHAM    LGT RAIN  72  66  81 CALM      30.13R
DAL-EXECUTIVE  CLOUDY    73  65  75 NE5       30.12S
FTW-ALLIANCE   CLOUDY    69  66  90 CALM      30.13R
FTW-NAS-JRB    CLOUDY    77  64  64 S3        30.17S
FTW-SPINKS     CLOUDY    69  65  88 CALM      30.14S
ARLINGTON      CLOUDY    70  65  84 CALM      30.13S
GRAND PRAIRIE  CLOUDY    72  64  76 CALM      30.14F
ADDISON        CLOUDY    73  64  73 CALM      30.15S
MESQUITE       CLOUDY    69  65  87 CALM      30.13R
LANCASTER      CLOUDY    68  62  81 CALM      30.13F
$$

TXZ091>094-102>105-117-120-121-131>134-151100-
NORTH CENTRAL TEXAS

CITY           SKY/WX    TMP DP  RH WIND       PRES   REMARKS
SHRMAN/DENISON LGT RAIN  69  64  84 SE8       30.15S
GAINESVILLE    CLOUDY    67  65  94 CALM      30.16S
BOWIE          CLOUDY    67  65  94 SE5       30.14S
BRIDGEPORT     LGT RAIN  68  68 100 CALM      30.15F
DECATUR        CLOUDY    69  65  89 S5        30.14S
DENTON         RAIN      68  66  93 CALM      30.14S
MCKINNEY       CLOUDY    68  65  90 NW3       30.14R
GREENVILLE     MOCLDY    68  63  83 CALM      30.14S
ROCKWALL       CLOUDY    70  65  84 E6        30.12S
TERRELL        CLOUDY    71  67  87 E3        30.13F
WAXAHACHIE     CLOUDY    69  63  80 E3        30.14S
GRANBURY       LGT RAIN  72  65  77 CALM      30.14S
$$

TXZ083>090-098>101-113>116-127>130-139>142-154-155-151100-
WESTERN NORTH TEXAS

CITY           SKY/WX    TMP DP  RH WIND       PRES   REMARKS
WICHITA FALLS  CLOUDY    68  65  90 S10       30.11S
WF-KICKAPOO    CLOUDY    69  65  90 SE5       30.13S
VERNON         CLOUDY    71  66  85 S8        30.13R
ABILENE        CLOUDY    72  63  73 S7        30.15S
ABILENE-DYESS  CLOUDY    71  62  72 S9        30.13F
BRECKENRIDGE   CLOUDY    72  63  73 S7        30.14R
GRAHAM         CLOUDY    69  64  84 CALM      30.12S
MINERAL WELLS  CLOUDY    68  65  90 SE3       30.12S
STEPHENVILLE   CLOUDY    68  64  85 CALM      30.17S
COMANCHE       LGT RAIN  69  63  80 SE5       30.15S
BROWNWOOD      CLOUDY    70  64  83 SE7       30.14F
COLEMAN        CLOUDY    70  64  81 CALM      30.16R
$$

TXZ143>147-156>162-174-175-151100-
CENTRAL TEXAS

CITY           SKY/WX    TMP DP  RH WIND       PRES   REMARKS
WACO           CLOUDY    69  66  90 CALM      30.12S
WACO-MCGREGOR  CLOUDY    70  61  73 SW5       30.14R
HILLSBORO      CLOUDY    72  64  76 E6        30.13S
CORSICANA      CLOUDY    71  66  84 N3        30.13S
MEXIA          CLOUDY    70  67  90 N3        30.11S
HEARNE           N/A     69  68  96 CALM      30.11S FOG
CAMERON        CLOUDY    70  65  85 CALM      30.11S
TEMPLE         CLOUDY    70  61  73 CALM      30.12S
KILLEEN        MOCLDY    72  66  83 NW3       30.13S
KILLEEN-SKYLRK CLOUDY    70  61  73 NW3       30.12R
FORT HOOD      CLOUDY    75  25  15 NW5       30.13S
GATESVILLE     CLOUDY    70  64  83 CALM      30.15F
HAMILTON       CLOUDY    69  63  83 S3        30.15F
LAMPASAS       CLOUDY    71  67  89 CALM      30.13F
$$

TXZ095>097-106>112-122>126-135>138-148>153-164>167-151100-
EAST TEXAS

CITY           SKY/WX    TMP DP  RH WIND       PRES   REMARKS
PARIS          CLOUDY    66  61  82 E6        30.15S
SULPHUR SPRNGS CLOUDY    67  65  93 CALM      30.16S
MOUNT PLEASANT CLOUDY    67  66  95 CALM      30.15S
GILMER         CLOUDY    68  66  94 CALM      30.16R
MINEOLA        MOCLDY    66  66 100 CALM      30.14F
TYLER          CLOUDY    71  67  87 CALM      30.13S
LONGVIEW       CLOUDY    69  65  86 CALM      30.12S
MARSHALL       CLOUDY    68  66  91 CALM      30.14S
ATHENS         CLOUDY    68  64  88 CALM      30.12S
PALESTINE      CLOUDY    71  68  92 CALM      30.12S
JACKSONVILLE   MOCLDY    69  67  96 CALM      30.15R
HENDERSON      CLOUDY    67  67  99 CALM      30.14R
NACOGDOCHES    MOCLDY    68  64  88 CALM      30.12S
LUFKIN         PTCLDY    71  67  87 CALM      30.11R
$$

SUPPLEMENTAL OBSERVATIONS (CENTRAL)

CITY           SKY/WX    TMP DP  RH WIND       PRES   REMARKS
LAKE TEXOMA      N/A     68  63  83 SE3         N/A
CADDO GRASSLND   N/A     66  63  88 SE1         N/A
PAT MAYSE LAKE   N/A     68  64  88 E2          N/A
GREENVILLE       N/A     68  64  88 SE1         N/A
CEDAR HILL       N/A     72  64  78 W1          N/A
ATHENS           N/A     70  66  88 NE2         N/A
PALESTINE        N/A     66  64  94 CALM        N/A
LAKE LIMESTONE   N/A     72  68  88 E5          N/A
MCGREGOR         N/A     68  64  88 CALM        N/A
TEMPLE           N/A     72  64  78 CALM        N/A
$$

SUPPLEMENTAL OBSERVATIONS (WEST)

CITY           SKY/WX    TMP DP  RH WIND       PRES   REMARKS
MILLERS CREEK    N/A     72  64  78 S5          N/A
POSSUM KINGDOM   N/A     70  63  78 SE5         N/A
LBJ GRASSLAND    N/A     66  63  88 SE3         N/A
GRANBURY         N/A     72  64  78 SW2         N/A
COMANCHE         N/A     70  63  78 S5          N/A
HAMBY            N/A     72  63  73 S8          N/A
IVIE RESERVOIR   N/A     70  64  83 E7          N/A
COLORADO BEND    N/A     70  66  88 S2          N/A
$$

SUPPLEMENTAL OBSERVATIONS (EAST)

CITY           SKY/WX    TMP DP  RH WIND       PRES   REMARKS
CLARKSVILLE      N/A     66  61  82 E2          N/A
TEXARKANA        N/A    N/A N/A N/A CALM        N/A
LINDEN           N/A     66  63  88 CALM        N/A
CADDO LAKE       N/A     64  63  94 CALM        N/A
GILMER           N/A     68  63  83 N1          N/A
HENDERSON        N/A     68  64  88 N1          N/A
LUFKIN           N/A     68  64  88 MISG        N/A
N SABINE NF      N/A     64  63  94 MISG        N/A
S SABINE NF      N/A     70  66  88 NE2         N/A
$$

SUPPLEMENTAL OBSERVATIONS ARE A COLLECTION OF AUTOMATED INSTRUMENTS
THAT ARE MAINTAINED BY A VARIETY OF FEDERAL AND STATE AGENCIES.
CERTAIN ELEMENTS...SUCH AS HUMIDITY VALUES AND SUSTAINED WIND
SPEEDS...MAY BE APPROXIMATED.




USA.gov is the U.S. government's official web portal to all federal, state and local government web resources and services.